Date String (YYYY-MM-DD hh:mm:ss) UTC,Instrument flags,Ambient pressure (hPa),Sample flow (lpm),Bypass flow (lpm),Sample temperature (°C),Ambient temperature (°C),ASC tube jacket temperature (°C),LED temperature (°C),Box temperature (°C),Sample RH (%),Span deviation,Mass concentration (μg/m³),Mass concentration (μg/m³),Mass concentration (μg/m³)
DateTimeUTC,F1_M11,P_M11,Q1_M11,Q2_M11,T1_M11,T2_M11,T3_M11,T4_M11,T5_M11,U1_M11,ZSPAN_M11,X0_M11,X2_M11,X1_M11
2021-12-14 16:00:00,,0821.4,4.99,0.00,24.2,23.3,00.0,33.1,26.0,07.6,0001.5,0019.51,0006.10,0004.43
2021-12-14 16:01:00,,0821.4,5.01,0.00,24.2,23.3,00.0,33.1,26.0,07.7,0000.2,0020.53,0006.19,0004.50
2021-12-14 16:02:00,,0821.4,5.00,0.00,24.2,23.4,00.0,33.1,26.0,07.7,-001.2,0020.58,0006.26,0004.54
2021-12-14 16:03:00,,0821.4,5.00,0.00,24.2,23.3,00.0,33.1,26.0,07.6,-000.8,0020.39,0006.26,0004.57
2021-12-14 16:04:00,,0821.4,4.99,0.00,24.2,23.4,00.0,33.1,26.0,07.5,0000.2,0020.62,0006.28,0004.62
2021-12-14 16:05:00,,0821.3,5.00,0.00,24.2,23.4,00.0,33.1,26.0,07.5,0001.1,0021.05,0006.30,0004.68
2021-12-14 16:06:00,,0821.2,5.01,0.00,24.2,23.4,00.0,33.2,26.0,07.5,-000.3,0021.69,0006.35,0004.73
2021-12-14 16:07:00,,0821.2,4.99,0.00,24.2,23.4,00.0,33.2,26.0,07.5,-000.2,0021.44,0006.39,0004.74
2021-12-14 16:08:00,,0821.1,4.99,0.00,24.2,23.4,00.0,33.2,26.0,07.4,0000.4,0022.05,0006.38,0004.72
2021-12-14 16:09:00,,0821.1,5.01,0.00,24.2,23.4,00.0,33.2,26.0,07.4,0000.4,0022.16,0006.32,0004.70
2021-12-14 16:10:00,,0821.1,5.00,0.00,24.2,23.4,00.0,33.2,26.0,07.6,0000.8,0021.12,0006.28,0004.69
2021-12-14 16:11:00,,0821.1,5.01,0.00,24.3,23.4,00.0,33.2,26.0,07.5,0000.7,0020.08,0006.27,0004.69
2021-12-14 16:12:00,,0821.1,4.99,0.00,24.3,23.4,00.0,33.2,26.0,07.4,0001.2,0019.43,0006.25,0004.68
2021-12-14 16:13:00,,0821.1,5.01,0.00,24.3,23.4,00.0,33.2,26.0,07.4,0002.2,0019.82,0006.19,0004.67
2021-12-14 16:14:00,,0821.1,5.01,0.00,24.3,23.4,00.0,33.2,26.0,07.4,0002.7,0019.22,0006.18,0004.69
2021-12-14 16:15:00,,0821.1,4.99,0.00,24.3,23.4,00.0,33.2,26.1,07.5,0002.0,0018.30,0006.19,0004.69
2021-12-14 16:16:00,,0821.1,5.01,0.00,24.3,23.4,00.0,33.2,26.1,07.5,0001.2,0018.19,0006.20,0004.68
2021-12-14 16:17:00,,0821.1,5.00,0.00,24.3,23.4,00.0,33.2,26.1,07.4,0003.8,0018.09,0006.14,0004.66
2021-12-14 16:18:00,,0821.1,5.00,0.00,24.3,23.4,00.0,33.2,26.0,07.4,0005.3,0017.34,0006.05,0004.61
2021-12-14 16:19:00,,0821.1,5.00,0.00,24.3,23.4,00.0,33.2,26.1,07.4,0002.5,0016.76,0006.05,0004.59
2021-12-14 16:20:00,,0821.1,5.00,0.00,24.3,23.5,00.0,33.2,26.1,07.4,0000.0,0016.26,0006.05,0004.57
2021-12-14 16:21:00,,0821.1,5.00,0.00,24.3,23.4,00.0,33.2,26.1,07.4,0003.8,0016.67,0006.08,0004.56
2021-12-14 16:22:00,,0821.1,5.00,0.00,24.3,23.4,00.0,33.2,26.1,07.4,0003.6,0017.55,0006.07,0004.54
2021-12-14 16:23:00,,0821.1,5.00,0.00,24.3,23.5,00.0,33.2,26.1,07.5,0002.7,0017.66,0006.04,0004.51
2021-12-14 16:24:00,,0821.2,5.00,0.00,24.3,23.5,00.0,33.2,26.1,07.9,0001.7,0017.25,0006.02,0004.49
2021-12-14 16:25:00,,0821.1,5.01,0.00,24.3,23.5,00.0,33.3,26.1,07.8,0002.3,0017.78,0006.00,0004.47
2021-12-14 16:26:00,,0821.1,4.99,0.00,24.3,23.5,00.0,33.3,26.1,08.3,0002.7,0020.19,0006.01,0004.44
2021-12-14 16:27:00,,0821.2,5.02,0.00,24.3,23.5,00.0,33.3,26.2,08.4,0002.2,0021.66,0006.04,0004.42
2021-12-14 16:28:00,,0821.2,5.00,0.00,24.4,23.5,00.0,33.3,26.2,08.4,-001.2,0022.98,0006.12,0004.41
2021-12-14 16:29:00,,0821.2,5.01,0.00,24.4,23.5,00.0,33.3,26.2,08.3,-002.0,0023.14,0006.16,0004.43
2021-12-14 16:30:00,,0821.2,4.99,0.00,24.4,23.5,00.0,33.3,26.2,08.5,-001.9,0023.46,0006.18,0004.46
2021-12-14 16:31:00,,0821.1,5.00,0.00,24.4,23.5,00.0,33.3,26.2,08.7,-000.2,0024.40,0006.29,0004.48
2021-12-14 16:32:00,,0821.0,4.99,0.00,24.4,23.5,00.0,33.3,26.2,08.6,-001.5,0024.78,0006.43,0004.48
2021-12-14 16:33:00,,0820.9,5.01,0.00,24.4,23.6,00.0,33.3,26.2,08.6,0001.7,0025.27,0006.47,0004.48
2021-12-14 16:34:00,,0820.9,5.00,0.00,24.4,23.6,00.0,33.3,26.2,08.5,0000.0,0025.39,0006.52,0004.48
2021-12-14 16:35:00,,0820.9,5.00,0.00,24.4,23.6,00.0,33.3,26.2,08.6,0000.0,0026.21,0006.70,0004.49
2021-12-14 16:36:00,,0820.9,5.00,0.00,24.4,23.6,00.0,33.3,26.2,08.5,0000.0,0027.14,0006.84,0004.49
2021-12-14 16:37:00,,0821.0,4.99,0.00,24.4,23.6,00.0,33.3,26.3,08.7,0000.0,0027.34,0006.94,0004.48
2021-12-14 16:38:00,,0821.0,4.99,0.00,24.4,23.6,00.0,33.3,26.3,08.7,0000.1,0026.52,0006.96,0004.49
2021-12-14 16:39:00,,0821.0,5.00,0.00,24.4,23.6,00.0,33.3,26.3,08.2,0001.8,0026.76,0006.98,0004.51
2021-12-14 16:40:00,,0821.0,5.00,0.00,24.4,23.6,00.0,33.3,26.3,07.9,0007.0,0028.23,0007.00,0004.50
2021-12-14 16:41:00,,0820.9,5.00,0.00,24.4,23.7,00.0,33.4,26.3,08.1,0013.3,0028.31,0007.04,0004.49
2021-12-14 16:42:00,,0820.9,5.00,0.00,24.5,23.7,00.0,33.4,26.3,08.1,0007.7,0027.85,0007.01,0004.50
2021-12-14 16:43:00,,0820.9,4.99,0.00,24.5,23.7,00.0,33.4,26.3,08.3,0003.5,0028.50,0006.95,0004.53
2021-12-14 16:44:00,,0820.9,5.00,0.00,24.5,23.7,00.0,33.4,26.3,08.9,-000.8,0028.23,0006.99,0004.56
2021-12-14 16:45:00,,0820.9,5.01,0.00,24.5,23.7,00.0,33.4,26.3,08.8,0003.2,0028.20,0007.03,0004.60
2021-12-14 16:46:00,,0820.9,5.00,0.00,24.5,23.7,00.0,33.4,26.3,08.7,0012.4,0027.66,0006.95,0004.62
2021-12-14 16:47:00,,0820.9,5.00,0.00,24.5,23.7,00.0,33.4,26.3,08.6,0011.8,0027.46,0006.92,0004.65
2021-12-14 16:48:00,,0820.9,5.00,0.00,24.5,23.7,00.0,33.4,26.3,08.6,0003.3,0025.34,0006.86,0004.69
2021-12-14 16:49:00,,0821.0,4.99,0.00,24.5,23.7,00.0,33.4,26.3,08.7,0000.0,0024.95,0006.86,0004.71
2021-12-14 16:50:00,,0821.0,5.01,0.00,24.5,23.7,00.0,33.4,26.3,08.6,0000.0,0023.80,0006.88,0004.72
2021-12-14 16:51:00,,0820.9,4.98,0.00,24.5,23.7,00.0,33.4,26.3,08.9,0000.0,0023.52,0006.94,0004.74
2021-12-14 16:52:00,,0820.9,5.00,0.00,24.5,23.7,00.0,33.4,26.4,08.8,0000.0,0025.13,0006.97,0004.79
2021-12-14 16:53:00,,0820.9,5.01,0.00,24.5,23.7,00.0,33.4,26.4,09.0,0000.0,0026.70,0007.00,0004.81
2021-12-14 16:54:00,,0820.8,4.99,0.00,24.5,23.7,00.0,33.5,26.4,09.1,0000.0,0026.21,0007.03,0004.80
2021-12-14 16:55:00,,0820.7,5.01,0.00,24.5,23.7,00.0,33.5,26.4,09.1,0000.0,0027.14,0007.11,0004.81
2021-12-14 16:56:00,,0820.7,4.99,0.00,24.5,23.7,00.0,33.5,26.4,09.2,0000.0,0027.53,0007.15,0004.82
2021-12-14 16:57:00,,0820.7,5.01,0.00,24.5,23.7,00.0,33.5,26.4,09.2,0000.0,0027.85,0007.12,0004.82
2021-12-14 16:58:00,,0820.7,4.99,0.00,24.6,23.7,00.0,33.5,26.4,09.3,0000.0,0029.07,0007.19,0004.82
2021-12-14 16:59:00,,0820.8,5.01,0.00,24.6,23.7,00.0,33.5,26.4,09.2,0000.0,0031.73,0007.32,0004.83
